SPIRALE A 1 33751U 09008C 25186.49959265 .00003282 00000-0 12272-2 0 9998 2 33751 2.0421 254.7474 5588461 245.2024 48.2497 4.62064678246086 SPIRALE B 1 33752U 09008D 25186.29552630 .00003272 00000-0 98647-3 0 9992 2 33752 1.8739 218.1372 6712873 309.6280 8.2608 3.01224189157531 SAPPHIRE 1 39088U 13009C 25186.52115257 .00000108 00000-0 52843-4 0 9996 2 39088 98.4152 9.4453 0010873 195.3526 164.7331 14.35080597646850